N15JF KCLL-KLCH

Flight info

Callsign N15JF
Flight time 1h 2m
Altitude 9500
Route DCT
Aircraft PA44/L-VGD/C

Departure

Time 2026-04-23 01:30
Airport Easterwood Field (KCLL)

Arrival

Time 2026-04-23 02:32
Airport Lake Charles Regional Airport (KLCH)
Time Latitude Longitude Altitude Speed Heading
2026-04-23 01:19 30.59136 -96.35975 302 ft 0 kts 259°
2026-04-23 01:26 30.59136 -96.35976 302 ft 0 kts 260°
2026-04-23 01:26 30.59135 -96.35990 302 ft 6 kts 275°
2026-04-23 01:26 30.59182 -96.36017 302 ft 9 kts 347°
2026-04-23 01:27 30.59257 -96.36037 303 ft 11 kts 348°
2026-04-23 01:27 30.59345 -96.36055 303 ft 11 kts 346°
2026-04-23 01:27 30.59425 -96.36076 304 ft 9 kts 358°
2026-04-23 01:27 30.59487 -96.36088 305 ft 11 kts 344°
2026-04-23 01:28 30.59582 -96.36139 306 ft 16 kts 328°
2026-04-23 01:28 30.59643 -96.36187 306 ft 5 kts 318°
2026-04-23 01:28 30.59644 -96.36189 306 ft 0 kts 324°
2026-04-23 01:28 30.59665 -96.36203 307 ft 7 kts 319°
2026-04-23 01:29 30.59652 -96.36272 307 ft 9 kts 221°
2026-04-23 01:29 30.59505 -96.36247 306 ft 54 kts 167°
2026-04-23 01:29 30.58971 -96.36134 420 ft 85 kts 168°
2026-04-23 01:29 30.58377 -96.36075 755 ft 87 kts 176°
2026-04-23 01:30 30.57793 -96.36105 1151 ft 85 kts 185°
2026-04-23 01:30 30.57206 -96.36228 1548 ft 86 kts 171°
2026-04-23 01:30 30.56703 -96.35974 2041 ft 81 kts 143°
2026-04-23 01:30 30.56340 -96.35427 2434 ft 90 kts 116°
2026-04-23 01:31 30.56230 -96.34701 2829 ft 98 kts 102°
2026-04-23 01:31 30.56132 -96.33925 3215 ft 101 kts 106°
2026-04-23 01:31 30.56006 -96.33097 3531 ft 110 kts 105°
2026-04-23 01:31 30.55862 -96.32214 3877 ft 113 kts 106°
2026-04-23 01:32 30.55709 -96.31329 4234 ft 114 kts 106°
2026-04-23 01:32 30.55547 -96.30433 4596 ft 114 kts 106°
2026-04-23 01:32 30.55378 -96.29534 4959 ft 114 kts 106°
2026-04-23 01:32 30.55249 -96.28633 5315 ft 116 kts 94°
2026-04-23 01:33 30.55286 -96.27703 5679 ft 115 kts 91°
2026-04-23 01:33 30.55327 -96.26786 6038 ft 115 kts 91°
2026-04-23 01:33 30.55365 -96.25869 6397 ft 114 kts 90°
2026-04-23 01:33 30.55389 -96.24953 6756 ft 114 kts 90°
2026-04-23 01:34 30.55406 -96.24053 7112 ft 112 kts 90°
2026-04-23 01:34 30.55409 -96.23158 7470 ft 111 kts 90°
2026-04-23 01:34 30.55399 -96.22269 7805 ft 112 kts 90°
2026-04-23 01:34 30.55380 -96.21356 8098 ft 115 kts 90°
2026-04-23 01:35 30.55356 -96.20420 8391 ft 118 kts 90°
2026-04-23 01:35 30.55325 -96.19466 8689 ft 120 kts 89°
2026-04-23 01:35 30.55468 -96.18532 8979 ft 118 kts 66°
2026-04-23 01:35 30.55753 -96.17627 9271 ft 119 kts 70°
2026-04-23 01:36 30.55901 -96.16647 9479 ft 129 kts 83°
2026-04-23 01:36 30.55905 -96.15541 9528 ft 147 kts 90°
2026-04-23 01:36 30.55812 -96.14307 9514 ft 160 kts 94°
2026-04-23 01:36 30.55666 -96.13004 9507 ft 166 kts 95°
2026-04-23 01:37 30.55496 -96.11667 9510 ft 170 kts 96°
2026-04-23 01:37 30.55314 -96.10297 9512 ft 172 kts 96°
2026-04-23 01:37 30.55129 -96.08925 9508 ft 174 kts 96°
2026-04-23 01:37 30.54939 -96.07530 9502 ft 174 kts 96°
2026-04-23 01:38 30.54749 -96.06148 9501 ft 174 kts 96°
2026-04-23 01:38 30.54560 -96.04767 9499 ft 174 kts 96°
2026-04-23 01:38 30.54370 -96.03381 9500 ft 174 kts 97°
2026-04-23 01:38 30.54178 -96.01987 9500 ft 174 kts 97°
2026-04-23 01:39 30.53989 -96.00610 9503 ft 174 kts 97°
2026-04-23 01:39 30.53798 -95.99219 9503 ft 174 kts 97°
2026-04-23 01:39 30.53608 -95.97840 9501 ft 174 kts 97°
2026-04-23 01:39 30.53415 -95.96447 9501 ft 174 kts 97°
2026-04-23 01:40 30.53224 -95.95057 9500 ft 174 kts 96°
2026-04-23 01:40 30.53033 -95.93674 9501 ft 174 kts 97°
2026-04-23 01:40 30.52843 -95.92300 9502 ft 174 kts 96°
2026-04-23 01:40 30.52650 -95.90903 9503 ft 174 kts 97°
2026-04-23 01:41 30.52461 -95.89533 9504 ft 174 kts 97°
2026-04-23 01:41 30.52270 -95.88149 9505 ft 174 kts 97°
2026-04-23 01:41 30.52077 -95.86763 9503 ft 174 kts 97°
2026-04-23 01:41 30.51886 -95.85383 9503 ft 174 kts 97°
2026-04-23 01:42 30.51695 -95.84006 9506 ft 173 kts 97°
2026-04-23 01:42 30.51503 -95.82626 9510 ft 173 kts 97°
2026-04-23 01:42 30.51310 -95.81235 9515 ft 174 kts 97°
2026-04-23 01:42 30.51117 -95.79855 9514 ft 174 kts 97°
2026-04-23 01:43 30.50923 -95.78464 9512 ft 174 kts 97°
2026-04-23 01:43 30.50731 -95.77092 9514 ft 174 kts 97°
2026-04-23 01:43 30.50538 -95.75706 9514 ft 174 kts 97°
2026-04-23 01:43 30.50345 -95.74322 9513 ft 174 kts 97°
2026-04-23 01:44 30.50150 -95.72927 9517 ft 174 kts 97°
2026-04-23 01:44 30.49958 -95.71551 9517 ft 174 kts 97°
2026-04-23 01:44 30.49762 -95.70156 9521 ft 174 kts 97°
2026-04-23 01:44 30.49569 -95.68772 9522 ft 174 kts 97°
2026-04-23 01:45 30.49376 -95.67396 9521 ft 174 kts 97°
2026-04-23 01:45 30.49180 -95.66000 9520 ft 174 kts 97°
2026-04-23 01:45 30.48987 -95.64621 9518 ft 174 kts 97°
2026-04-23 01:45 30.48791 -95.63227 9519 ft 174 kts 97°
2026-04-23 01:46 30.48597 -95.61844 9520 ft 174 kts 97°
2026-04-23 01:46 30.48402 -95.60464 9517 ft 174 kts 97°
2026-04-23 01:46 30.48208 -95.59083 9517 ft 174 kts 97°
2026-04-23 01:46 30.48011 -95.57691 9517 ft 174 kts 97°
2026-04-23 01:47 30.47816 -95.56303 9518 ft 174 kts 97°
2026-04-23 01:47 30.47623 -95.54936 9518 ft 174 kts 97°
2026-04-23 01:47 30.47427 -95.53551 9521 ft 174 kts 97°
2026-04-23 01:47 30.47230 -95.52159 9523 ft 174 kts 97°
2026-04-23 01:48 30.47035 -95.50781 9522 ft 175 kts 97°
2026-04-23 01:48 30.46839 -95.49389 9525 ft 174 kts 97°
2026-04-23 01:48 30.46643 -95.48004 9522 ft 174 kts 97°
2026-04-23 01:48 30.46446 -95.46619 9526 ft 174 kts 97°
2026-04-23 01:49 30.46250 -95.45238 9520 ft 174 kts 97°
2026-04-23 01:49 30.46053 -95.43851 9524 ft 174 kts 97°
2026-04-23 01:49 30.45856 -95.42462 9526 ft 174 kts 97°
2026-04-23 01:49 30.45659 -95.41081 9525 ft 175 kts 97°
2026-04-23 01:50 30.45460 -95.39682 9523 ft 175 kts 97°
2026-04-23 01:50 30.45264 -95.38305 9520 ft 175 kts 97°
2026-04-23 01:50 30.45065 -95.36914 9522 ft 174 kts 97°
2026-04-23 01:50 30.44867 -95.35520 9523 ft 174 kts 97°
2026-04-23 01:51 30.44669 -95.34137 9520 ft 174 kts 98°
2026-04-23 01:51 30.44472 -95.32757 9520 ft 175 kts 98°
2026-04-23 01:51 30.44272 -95.31359 9521 ft 174 kts 98°
2026-04-23 01:51 30.44076 -95.29989 9526 ft 174 kts 98°
2026-04-23 01:52 30.43876 -95.28593 9525 ft 174 kts 98°
2026-04-23 01:52 30.43677 -95.27202 9531 ft 174 kts 98°
2026-04-23 01:52 30.43479 -95.25827 9526 ft 175 kts 98°
2026-04-23 01:52 30.43279 -95.24435 9520 ft 175 kts 98°
2026-04-23 01:53 30.43078 -95.23038 9523 ft 175 kts 98°
2026-04-23 01:53 30.42881 -95.21664 9521 ft 175 kts 98°
2026-04-23 01:53 30.42680 -95.20268 9520 ft 175 kts 98°
2026-04-23 01:53 30.42481 -95.18890 9516 ft 175 kts 98°
2026-04-23 01:54 30.42280 -95.17492 9520 ft 174 kts 98°
2026-04-23 01:54 30.42083 -95.16123 9518 ft 174 kts 98°
2026-04-23 01:54 30.41882 -95.14732 9520 ft 174 kts 98°
2026-04-23 01:54 30.41682 -95.13348 9520 ft 174 kts 98°
2026-04-23 01:55 30.41481 -95.11959 9519 ft 174 kts 98°
2026-04-23 01:55 30.41282 -95.10580 9517 ft 174 kts 98°
2026-04-23 01:55 30.41080 -95.09189 9514 ft 174 kts 98°
2026-04-23 01:55 30.40879 -95.07804 9517 ft 174 kts 98°
2026-04-23 01:56 30.40678 -95.06416 9518 ft 174 kts 98°
2026-04-23 01:56 30.40479 -95.05042 9517 ft 175 kts 98°
2026-04-23 01:56 30.40276 -95.03645 9515 ft 175 kts 98°
2026-04-23 01:56 30.40074 -95.02261 9517 ft 175 kts 98°
2026-04-23 01:57 30.39872 -95.00869 9519 ft 175 kts 98°
2026-04-23 01:57 30.39670 -94.99477 9519 ft 175 kts 98°
2026-04-23 01:57 30.39466 -94.98082 9517 ft 175 kts 98°
2026-04-23 01:57 30.39264 -94.96697 9516 ft 175 kts 98°
2026-04-23 01:58 30.39062 -94.95309 9518 ft 175 kts 98°
2026-04-23 01:58 30.38859 -94.93919 9516 ft 175 kts 98°
2026-04-23 01:58 30.38659 -94.92548 9516 ft 174 kts 98°
2026-04-23 01:58 30.38453 -94.91146 9516 ft 174 kts 98°
2026-04-23 01:59 30.38253 -94.89777 9517 ft 174 kts 98°
2026-04-23 01:59 30.38050 -94.88393 9519 ft 174 kts 98°
2026-04-23 01:59 30.37847 -94.87007 9519 ft 175 kts 98°
2026-04-23 01:59 30.37644 -94.85625 9519 ft 174 kts 98°
2026-04-23 02:00 30.37440 -94.84237 9521 ft 174 kts 98°
2026-04-23 02:00 30.37238 -94.82857 9524 ft 174 kts 98°
2026-04-23 02:00 30.37035 -94.81477 9526 ft 173 kts 98°
2026-04-23 02:00 30.36833 -94.80109 9529 ft 174 kts 98°
2026-04-23 02:01 30.36629 -94.78717 9529 ft 174 kts 98°
2026-04-23 02:01 30.36426 -94.77345 9530 ft 174 kts 98°
2026-04-23 02:01 30.36223 -94.75966 9531 ft 174 kts 98°
2026-04-23 02:01 30.36019 -94.74586 9532 ft 173 kts 98°
2026-04-23 02:02 30.35816 -94.73212 9531 ft 174 kts 98°
2026-04-23 02:02 30.35612 -94.71831 9533 ft 173 kts 98°
2026-04-23 02:02 30.35410 -94.70465 9533 ft 174 kts 98°
2026-04-23 02:02 30.35206 -94.69088 9530 ft 174 kts 98°
2026-04-23 02:03 30.35001 -94.67705 9529 ft 174 kts 98°
2026-04-23 02:03 30.34797 -94.66325 9534 ft 174 kts 98°
2026-04-23 02:03 30.34592 -94.64948 9533 ft 174 kts 98°
2026-04-23 02:03 30.34388 -94.63573 9534 ft 174 kts 98°
2026-04-23 02:04 30.34183 -94.62189 9534 ft 174 kts 98°
2026-04-23 02:04 30.33977 -94.60806 9535 ft 174 kts 98°
2026-04-23 02:04 30.33773 -94.59436 9537 ft 173 kts 98°
2026-04-23 02:04 30.33568 -94.58055 9535 ft 173 kts 98°
2026-04-23 02:05 30.33365 -94.56696 9534 ft 173 kts 98°
2026-04-23 02:05 30.33159 -94.55314 9535 ft 173 kts 98°
2026-04-23 02:05 30.32953 -94.53932 9535 ft 173 kts 98°
2026-04-23 02:05 30.32749 -94.52570 9536 ft 174 kts 98°
2026-04-23 02:06 30.32542 -94.51189 9535 ft 174 kts 98°
2026-04-23 02:06 30.32336 -94.49807 9537 ft 173 kts 98°
2026-04-23 02:06 30.32132 -94.48444 9536 ft 173 kts 98°
2026-04-23 02:06 30.31925 -94.47062 9537 ft 173 kts 98°
2026-04-23 02:07 30.31718 -94.45681 9536 ft 174 kts 98°
2026-04-23 02:07 30.31513 -94.44318 9538 ft 174 kts 99°
2026-04-23 02:07 30.31307 -94.42939 9537 ft 174 kts 99°
2026-04-23 02:07 30.31099 -94.41557 9535 ft 173 kts 98°
2026-04-23 02:08 30.30892 -94.40185 9537 ft 173 kts 98°
2026-04-23 02:08 30.30686 -94.38814 9535 ft 173 kts 98°
2026-04-23 02:08 30.30479 -94.37442 9536 ft 173 kts 98°
2026-04-23 02:08 30.30272 -94.36071 9535 ft 173 kts 98°
2026-04-23 02:09 30.30066 -94.34705 9535 ft 173 kts 99°
2026-04-23 02:09 30.29858 -94.33324 9534 ft 173 kts 99°
2026-04-23 02:09 30.29651 -94.31954 9534 ft 173 kts 99°
2026-04-23 02:09 30.29444 -94.30584 9533 ft 173 kts 99°
2026-04-23 02:10 30.29237 -94.29209 9535 ft 173 kts 99°
2026-04-23 02:10 30.29030 -94.27845 9536 ft 173 kts 99°
2026-04-23 02:10 30.28822 -94.26472 9536 ft 173 kts 99°
2026-04-23 02:10 30.28614 -94.25096 9535 ft 173 kts 99°
2026-04-23 02:11 30.28406 -94.23731 9533 ft 172 kts 99°
2026-04-23 02:11 30.28199 -94.22366 9533 ft 172 kts 99°
2026-04-23 02:11 30.27991 -94.21001 9539 ft 172 kts 99°
2026-04-23 02:11 30.27786 -94.19649 9537 ft 172 kts 99°
2026-04-23 02:12 30.27579 -94.18288 9537 ft 172 kts 99°
2026-04-23 02:12 30.27372 -94.16929 9495 ft 174 kts 99°
2026-04-23 02:12 30.27161 -94.15543 9464 ft 174 kts 99°
2026-04-23 02:12 30.26950 -94.14161 9462 ft 173 kts 99°
2026-04-23 02:13 30.26743 -94.12799 9463 ft 172 kts 99°
2026-04-23 02:13 30.26535 -94.11438 9464 ft 172 kts 99°
2026-04-23 02:13 30.26325 -94.10066 9463 ft 173 kts 99°
2026-04-23 02:13 30.26117 -94.08701 9462 ft 173 kts 99°
2026-04-23 02:14 30.25907 -94.07330 9463 ft 172 kts 99°
2026-04-23 02:14 30.25699 -94.05969 9463 ft 172 kts 99°
2026-04-23 02:14 30.25491 -94.04614 9465 ft 172 kts 99°
2026-04-23 02:14 30.25280 -94.03240 9465 ft 172 kts 99°
2026-04-23 02:15 30.24862 -94.00521 9463 ft 172 kts 99°
2026-04-23 02:15 30.24653 -93.99162 9459 ft 171 kts 99°
2026-04-23 02:15 30.24445 -93.97811 9465 ft 171 kts 99°
2026-04-23 02:16 30.24238 -93.96460 9466 ft 171 kts 99°
2026-04-23 02:16 30.24027 -93.95089 9467 ft 171 kts 99°
2026-04-23 02:16 30.23820 -93.93745 9470 ft 171 kts 99°
2026-04-23 02:16 30.23611 -93.92391 9473 ft 172 kts 99°
2026-04-23 02:17 30.23400 -93.91021 9467 ft 172 kts 99°
2026-04-23 02:17 30.23188 -93.89649 9469 ft 172 kts 99°
2026-04-23 02:17 30.22978 -93.88290 9471 ft 171 kts 99°
2026-04-23 02:17 30.22770 -93.86947 9471 ft 172 kts 99°
2026-04-23 02:18 30.22558 -93.85582 9468 ft 172 kts 99°
2026-04-23 02:18 30.22347 -93.84217 9463 ft 171 kts 99°
2026-04-23 02:18 30.22138 -93.82872 9478 ft 172 kts 99°
2026-04-23 02:18 30.21926 -93.81503 9342 ft 177 kts 99°
2026-04-23 02:19 30.21710 -93.80111 9159 ft 175 kts 99°
2026-04-23 02:19 30.21494 -93.78714 8935 ft 175 kts 99°
2026-04-23 02:19 30.21280 -93.77335 8711 ft 175 kts 99°
2026-04-23 02:19 30.21067 -93.75962 8485 ft 174 kts 100°
2026-04-23 02:20 30.20854 -93.74592 8271 ft 174 kts 100°
2026-04-23 02:20 30.20640 -93.73215 8054 ft 173 kts 100°
2026-04-23 02:20 30.20428 -93.71854 7844 ft 172 kts 100°
2026-04-23 02:20 30.20216 -93.70493 7633 ft 171 kts 101°
2026-04-23 02:21 30.20005 -93.69144 7410 ft 171 kts 101°
2026-04-23 02:21 30.19796 -93.67805 7196 ft 170 kts 101°
2026-04-23 02:21 30.19585 -93.66458 6984 ft 169 kts 101°
2026-04-23 02:21 30.19376 -93.65123 6763 ft 169 kts 101°
2026-04-23 02:22 30.19167 -93.63784 6546 ft 169 kts 101°
2026-04-23 02:22 30.18959 -93.62452 6330 ft 169 kts 102°
2026-04-23 02:22 30.18750 -93.61119 6105 ft 168 kts 102°
2026-04-23 02:22 30.18544 -93.59807 5877 ft 167 kts 102°
2026-04-23 02:23 30.18336 -93.58482 5661 ft 167 kts 102°
2026-04-23 02:23 30.18132 -93.57184 5443 ft 166 kts 103°
2026-04-23 02:23 30.17926 -93.55871 5219 ft 165 kts 103°
2026-04-23 02:23 30.17720 -93.54564 4993 ft 164 kts 103°
2026-04-23 02:24 30.17518 -93.53283 4771 ft 162 kts 103°
2026-04-23 02:24 30.17315 -93.51988 4549 ft 163 kts 103°
2026-04-23 02:24 30.17112 -93.50707 4329 ft 164 kts 103°
2026-04-23 02:24 30.16907 -93.49403 4109 ft 163 kts 103°
2026-04-23 02:25 30.16705 -93.48121 3890 ft 163 kts 103°
2026-04-23 02:25 30.16504 -93.46847 3670 ft 162 kts 103°
2026-04-23 02:25 30.16300 -93.45560 3444 ft 161 kts 103°
2026-04-23 02:25 30.16100 -93.44289 3227 ft 160 kts 104°
2026-04-23 02:26 30.15900 -93.43024 3029 ft 159 kts 104°
2026-04-23 02:26 30.15705 -93.41793 2860 ft 157 kts 104°
2026-04-23 02:26 30.15505 -93.40535 2739 ft 159 kts 104°
2026-04-23 02:26 30.15304 -93.39270 2618 ft 161 kts 104°
2026-04-23 02:27 30.15103 -93.38000 2495 ft 162 kts 104°
2026-04-23 02:27 30.14899 -93.36715 2366 ft 162 kts 104°
2026-04-23 02:27 30.14698 -93.35429 2242 ft 162 kts 103°
2026-04-23 02:27 30.14648 -93.34139 2115 ft 160 kts 95°
2026-04-23 02:28 30.14655 -93.32848 1989 ft 157 kts 94°
2026-04-23 02:28 30.14663 -93.31600 1865 ft 155 kts 95°
2026-04-23 02:28 30.14680 -93.30473 1713 ft 121 kts 94°
2026-04-23 02:28 30.14717 -93.29627 1555 ft 99 kts 95°
2026-04-23 02:29 30.14752 -93.28842 1434 ft 99 kts 95°
2026-04-23 02:29 30.14783 -93.28044 1313 ft 99 kts 95°
2026-04-23 02:29 30.14813 -93.27240 1189 ft 101 kts 95°
2026-04-23 02:29 30.14840 -93.26438 1069 ft 96 kts 95°
2026-04-23 02:30 30.14866 -93.25686 952 ft 92 kts 95°
2026-04-23 02:30 30.14889 -93.24958 836 ft 90 kts 96°
2026-04-23 02:30 30.14823 -93.24300 743 ft 80 kts 112°
2026-04-23 02:30 30.14537 -93.23765 559 ft 78 kts 139°
2026-04-23 02:31 30.14074 -93.23436 395 ft 77 kts 151°
2026-04-23 02:31 30.13580 -93.23171 236 ft 79 kts 153°
2026-04-23 02:31 30.13087 -93.22906 90 ft 76 kts 153°
2026-04-23 02:31 30.12623 -93.22656 15 ft 68 kts 155°
2026-04-23 02:32 30.12291 -93.22478 10 ft 27 kts 153°
2026-04-23 02:32 30.12199 -93.22392 10 ft 15 kts 123°
2026-04-23 02:32 30.12141 -93.22293 10 ft 11 kts 124°
2026-04-23 02:32 30.12122 -93.22221 10 ft 9 kts 86°
2026-04-23 02:33 30.12148 -93.22168 10 ft 4 kts
2026-04-23 02:33 30.12201 -93.22196 10 ft 12 kts 335°
2026-04-23 02:33 30.12300 -93.22244 10 ft 17 kts 339°
2026-04-23 02:33 30.12392 -93.22304 10 ft 13 kts 349°
2026-04-23 02:34 30.12439 -93.22240 11 ft 11 kts 72°
2026-04-23 02:34 30.12504 -93.22243 11 ft 9 kts 353°
2026-04-23 02:34 30.12554 -93.22216 11 ft 4 kts 31°
2026-04-23 02:34 30.12566 -93.22223 11 ft 2 kts 257°
2026-04-23 02:35 30.12563 -93.22229 11 ft 0 kts 246°